Regional Weather Roundup
Issued by NWS Charleston, SC

Current Version | Previous Version | Graphics & Text | Print | Product List | Glossary Off
Versions: 1 2 3 4 5 6 7 8 9 10 11 12 13 14 15 16 17 18 19 20 21 22 23 24 25 26 27 28 29 30 31 32 33 34 35 36 37 38 39 40 41 42 43 44 45 46 47 48 49 50

000
ASUS42 KCHS 301027
RWRCHS

REGIONAL WEATHER ROUNDUP
NATIONAL WEATHER SERVICE CHARLESTON SC
600 AM EDT THU JUL 30 2015

NOTE: "FAIR" INDICATES FEW OR NO CLOUDS BELOW 12,000 FEET WITH NO
SIGNIFICANT WEATHER AND/OR OBSTRUCTIONS TO VISIBILITY.

NOT ALL STATIONS ARE QUALITY CONTROLLED BY THE NATIONAL
WEATHER SERVICE. USE DATA WITH CAUTION...ESPECIALLY
DEWPOINT OBSERVATIONS.

SCZ027-030-031-034>040-042>050-301100-
...SOUTHEAST SOUTH CAROLINA...

CITY           SKY/WX    TMP DP  RH WIND       PRES   REMARKS
N CHARLESTON   PTCLDY    75  73  93 N3        29.92F
WATERFRONT PRK NOT AVBL
MOUNT PLEASANT PTSUNNY   75  75 100 CALM      29.92F
JOHNS ISLAND   FAIR      77  75  94 CALM      29.93R
PINOPOLIS      NOT AVBL
MONCKS CORNER  FAIR      75  72  88 CALM      29.93S
SUMMERVILLE    FAIR      73  73 100 CALM      29.94S
BEAUFORT MCAS  CLEAR     78  75  90 NW3       29.93S
BEAUFORT ARPT  FAIR      79  77  94 NW5       29.93R
HILTON HEAD IS NOT AVBL
WALTERBORO     SUNNY     77  73  88 CALM      29.94S
ALLENDALE      FAIR      75  73  94 CALM      29.92F

...SOUTHERN MIDLANDS AND PEE DEE...

CITY           SKY/WX    TMP DP  RH WIND       PRES   REMARKS
GEORGETOWN     NOT AVBL
KINGSTREE      NOT AVBL
ORANGEBURG     CLEAR     75  73  93 CALM      29.93F
BARNWELL       FAIR      75  75 100 CALM      29.94S
AIKEN          FAIR      72  70  94 CALM      29.98S
MANNING        FAIR      70  59  68 CALM      29.93F
COLUMBIA       PTCLDY    78  72  81 CALM      29.93S
SUMTER         CLEAR     75  71  87 CALM      29.92F
FLORENCE       CLEAR     74  70  87 E3        29.94S
MYRTLE BEACH   CLEAR     75  70  83 N6        29.95S
N MYRTLE BEACH CLEAR     73  71  93 N3        29.93S

$$

GAZ063-065-086>088-099>101-113>116-118-119-134>141-150-301100-
...SOUTHEAST GEORGIA...

CITY           SKY/WX    TMP DP  RH WIND       PRES   REMARKS
SAVANNAH ARPT  PTCLDY    76  72  87 CALM      29.93S
HUNTER AAF     CLEAR     77  76  96 N5        29.90S
FORT STEWART   PTCLDY    74  71  93 CALM      29.90F
STATESBORO     CLEAR     72  72 100 CALM      29.94R
SYLVANIA       MOSUNNY   75  74  98 CALM      29.94S
CLAXTON        FAIR      72  72 100 CALM      29.94R

...CSRA...CENTRAL AND FAR SOUTHEAST GEORGIA...

CITY           SKY/WX    TMP DP  RH WIND       PRES   REMARKS
THOMSON        CLEAR     75  75 100 CALM      29.99R
AUGUSTA-BUSH   CLEAR     75  75 100 CALM      29.92S FOG
AUGUSTA-DANIEL CLEAR     77  72  84 CALM      29.94S
SWAINSBORO     FAIR     N/A N/A N/A CALM      29.94S
VIDALIA        HVY RAIN  75  73  94 E3        29.93S
EASTMAN        FAIR      75  75 100 CALM      29.95S FOG
HAZLEHURST     FAIR      77  77 100 CALM      29.92S
ALMA           FOG       74  74 100 CALM      29.93R VSB 1/4
WAYCROSS       PTCLDY    77  77 100 SW3       29.92S FOG
JESUP          FAIR      75  73  94 CALM      29.93R
BAXLEY         FAIR      75  73  94 CALM      29.93R
BRUNSWICK      CLEAR     72  72 100 CALM      29.93S
SAINT SIMONS   CLEAR     76  74  93 N6        29.91F

$$

SCZ027-028-034-036>038-045-046-048>050-GAZ119-141-301100-
...LAKE AND SUPPLEMENTAL COASTAL OBSERVATIONS...

STATION/POSITION TIME  TEMP    WIND        PRES    WAVE   SWELL
                       AIR SEA DIR/SP/G            HT/PER HT/PER/DIR
                 (UTC) (F)     (DEG/KT/KT) (MB)    (FT/S) (FT/S/D)
UPR LAKE MARION  NOT AVBL
WINYAH BAY       0900   74     330/  6     1012.0F
LAKE MURRAY      0900   80     240/  7/  9 1012.9F
ACE BASIN NERRS  NOT AVBL
FORT PULASKI     0900   79 86                N/A
SAPELO ISLAND    1000   78     360/  8     1013.0S

$$

ANZ835-935-AMZ111-154-330-350-352-354-370-450-454-472-301100-
...C-MAN AND BUOY OBSERVATIONS...

STATION/POSITION TIME  TEMP    WIND        PRES    WAVE   SWELL
                       AIR SEA DIR/SP/G            HT/PER HT/PER/DIR
                 (UTC) (F)     (DEG/KT/KT) (MB)    (FT/S) (FT/S/D)
BUOY 41004       0950   82 84   10/ 10/ 12 1012.0S   3/ 5   3/ 5
BUOY 41008       0950   82 82  350/ 10/ 12 1013.0R   2/ 5   2/ 70/ 5
FOLLY BEACH CMAN 1000   78     340/  5/  7 1013.2S
CAPERS NEARSHORE 0908   79     350/ 10/ 12 1013.2F
FRIPP NEARSHORE  0900   82     340/ 10/ 10 1012.6F


STATION/POSITION TIME  TEMP    WIND        PRES    WAVE   SWELL
                       AIR SEA DIR/SP/G            HT/PER HT/PER/DIR
                 (UTC) (F)     (DEG/KT/KT) (MB)    (FT/S) (FT/S/D)
5E ST. MARYS GA  0921      83                N/A     2/ 6
FRYING PAN BUOY  0950   82 84   30/ 10/ 12 1012.9F   3/ 7   3/160/ 7
BUOY 41025       0950   84 85  180/ 14/ 16 1013.2F   3/ 9   2/130/ 9
CAPE LOOKOUT NC  1000   81     130/  8/  8 1012.5R
BUOY 41002       0950   83 81  190/ 17/ 21 1014.4S   7/ 8
BUOY 41010       0920   83 84  260/ 16/ 19 1012.9R
ST AUGUSTINE FL  1000   73 81  230/  3/  4 1014.4R


$$



USA.gov is the U.S. government's official web portal to all federal, state and local government web resources and services.